contact:dominique.lefevre@mio.osupytheas.fr, maurice.libes@osupytheas.fr, didier.mallarino@osupytheas.fr
Project:EMSO http://www.emso-fr.org/EMSO-France
Depth: 2436.0 m
Title:EMSO Ligure Ouest : Data MII capteur AQUADOPP
Date,Latitude,Longitude,X_East,Y_North,Z_Up,Amplitude_X,Amplitude_Y,Amplitude_Z,Batterie,SoundSpeed,Heading,Pitch,Roll,Pressure,TIS,Speed,Direction
, degrees North, degrees East, m.s-1, m.s-1,m.s-1, 1, 1, 1, Volt, m.s-1, degree, degree, degree, dbar, degree_C, m.s-1, degree
2023-07-10T00:04:03,42.805,6.029,0.021,0.0,-0.023,103.0,102.0,101.0,13.4,1505.2,330.1,-0.8,1.8,2471.553,13.28,0.021,90.0
2023-07-10T00:07:03,42.805,6.029,-0.008,-0.022,-0.058,102.0,102.0,101.0,13.4,1505.2,332.2,-0.7,1.8,2471.578,13.28,0.023,200.0
2023-07-10T00:10:03,42.805,6.029,-0.002,-0.016,-0.015,102.0,101.0,102.0,13.4,1505.2,330.1,-0.8,1.8,2471.579,13.28,0.016,187.1
2023-07-10T00:13:03,42.805,6.029,0.002,-0.014,-0.024,102.0,102.0,102.0,13.4,1505.2,326.0,-0.7,1.8,2471.582,13.29,0.014,171.9
2023-07-10T00:16:03,42.805,6.029,-0.008,-0.01,-0.038,102.0,101.0,102.0,13.4,1505.2,340.9,-0.7,1.8,2471.534,13.29,0.012,218.7
2023-07-10T00:19:03,42.805,6.029,0.0,-0.028,-0.046,104.0,104.0,101.0,13.3,1505.2,333.8,-0.8,1.8,2471.597,13.29,0.028,180.0
2023-07-10T00:22:03,42.805,6.029,0.011,0.0,-0.009,103.0,100.0,102.0,13.4,1505.2,332.9,-0.8,1.8,2471.549,13.29,0.011,90.0
2023-07-10T00:25:03,42.805,6.029,-0.003,-0.01,-0.021,102.0,103.0,101.0,13.3,1505.2,349.5,-0.8,1.8,2471.566,13.29,0.01,196.7
2023-07-10T00:28:03,42.805,6.029,0.011,-0.009,-0.056,101.0,103.0,102.0,13.4,1505.2,328.8,-0.8,1.8,2471.539,13.29,0.014,129.3
2023-07-10T00:31:03,42.805,6.029,-0.008,0.007,-0.018,101.0,102.0,102.0,13.4,1505.2,338.4,-0.7,1.8,2471.547,13.29,0.01,311.2
2023-07-10T00:34:03,42.805,6.029,0.009,-0.019,-0.022,103.0,102.0,101.0,13.4,1505.2,326.5,-0.8,1.8,2471.555,13.29,0.021,154.7
2023-07-10T00:37:03,42.805,6.029,0.0,-0.001,-0.017,103.0,102.0,101.0,13.4,1505.2,334.4,-0.8,1.8,2471.555,13.29,0.001,180.0
2023-07-10T00:40:03,42.805,6.029,0.015,-0.022,-0.024,102.0,102.0,101.0,13.3,1505.2,322.2,-0.7,1.8,2471.566,13.29,0.026,145.7
2023-07-10T00:43:03,42.805,6.029,0.013,-0.031,-0.038,101.0,102.0,102.0,13.4,1505.2,336.5,-0.8,1.8,2471.571,13.29,0.033,157.3
2023-07-10T00:46:03,42.805,6.029,-0.001,-0.009,0.003,102.0,103.0,102.0,13.3,1505.2,325.1,-0.7,1.9,2471.576,13.29,0.009,186.3
2023-07-10T00:49:03,42.805,6.029,0.0,-0.026,-0.034,102.0,101.0,101.0,13.3,1505.2,347.7,-0.8,1.8,2471.574,13.29,0.026,180.0
2023-07-10T00:52:03,42.805,6.029,0.0,-0.029,-0.041,101.0,102.0,102.0,13.4,1505.2,329.3,-0.8,1.8,2471.562,13.29,0.028,180.0
2023-07-10T00:55:03,42.805,6.029,0.002,-0.065,-0.076,104.0,104.0,100.0,13.3,1505.2,336.5,-0.8,1.8,2471.582,13.29,0.065,178.2
2023-07-10T00:58:03,42.805,6.029,0.004,-0.016,-0.022,104.0,102.0,101.0,13.4,1505.2,348.8,-0.8,1.8,2471.513,13.29,0.016,166.0
2023-07-10T01:04:03,42.805,6.029,-0.003,-0.009,-0.025,103.0,102.0,102.0,13.4,1505.2,339.7,-0.8,1.8,2471.589,13.28,0.009,198.4
2023-07-10T01:07:03,42.805,6.029,0.008,-0.026,-0.037,102.0,102.0,101.0,13.4,1505.2,337.5,-0.8,1.8,2471.571,13.28,0.027,162.9
2023-07-10T01:10:03,42.805,6.029,0.011,-0.023,-0.025,102.0,102.0,102.0,13.4,1505.2,323.4,-0.8,1.8,2471.567,13.29,0.025,154.4
2023-07-10T01:13:03,42.805,6.029,0.008,-0.01,-0.013,102.0,102.0,102.0,13.3,1505.2,324.5,-0.8,1.8,2471.61,13.29,0.012,141.3
2023-07-10T01:16:03,42.805,6.029,-0.023,-0.028,-0.061,102.0,103.0,100.0,13.4,1505.2,343.9,-0.7,1.8,2471.585,13.29,0.036,219.4
2023-07-10T01:19:03,42.805,6.029,-0.01,-0.016,-0.014,103.0,102.0,101.0,13.4,1505.2,348.4,-0.8,1.8,2471.553,13.29,0.018,212.0
2023-07-10T01:22:03,42.805,6.029,0.003,-0.022,-0.026,103.0,102.0,101.0,13.4,1505.2,351.8,-0.8,1.9,2471.573,13.29,0.022,172.2
2023-07-10T01:25:03,42.805,6.029,0.0,-0.009,0.005,103.0,100.0,102.0,13.4,1505.2,324.5,-0.8,1.8,2471.503,13.29,0.009,180.0
2023-07-10T01:28:03,42.805,6.029,0.008,-0.035,-0.049,103.0,100.0,102.0,13.4,1505.2,348.8,-0.8,1.8,2471.568,13.29,0.035,167.1
2023-07-10T01:31:03,42.805,6.029,-0.004,-0.012,-0.046,103.0,101.0,102.0,13.4,1505.2,334.8,-0.8,1.8,2471.525,13.29,0.012,198.4
2023-07-10T01:34:03,42.805,6.029,-0.031,-0.01,-0.046,102.0,101.0,102.0,13.4,1505.2,344.7,-0.8,1.8,2471.559,13.29,0.032,252.1
2023-07-10T01:37:03,42.805,6.029,0.016,-0.018,-0.01,102.0,102.0,103.0,13.4,1505.2,329.7,-0.8,1.8,2471.551,13.29,0.024,138.4
2023-07-10T01:40:03,42.805,6.029,0.005,-0.039,-0.029,102.0,102.0,102.0,13.4,1505.2,334.4,-0.8,1.8,2471.572,13.29,0.039,172.7
2023-07-10T01:43:03,42.805,6.029,-0.009,-0.003,-0.034,102.0,103.0,102.0,13.4,1505.2,341.5,-0.8,1.8,2471.538,13.29,0.009,251.6
2023-07-10T01:46:03,42.805,6.029,-0.004,-0.014,-0.012,102.0,101.0,102.0,13.4,1505.2,324.4,-0.7,1.8,2471.524,13.29,0.014,195.9
2023-07-10T01:49:03,42.805,6.029,0.004,-0.021,-0.038,102.0,102.0,101.0,13.4,1505.2,345.9,-0.7,1.8,2471.535,13.29,0.021,169.2
2023-07-10T01:52:03,42.805,6.029,0.019,-0.018,-0.027,101.0,102.0,101.0,13.4,1505.2,338.8,-0.8,1.8,2471.549,13.29,0.026,133.5
2023-07-10T01:55:03,42.805,6.029,-0.026,-0.012,-0.067,102.0,102.0,101.0,13.4,1505.2,334.4,-0.7,1.8,2471.523,13.29,0.028,245.2
2023-07-10T01:58:03,42.805,6.029,-0.003,-0.007,-0.027,104.0,101.0,102.0,13.3,1505.2,350.1,-0.7,1.8,2471.54,13.29,0.007,203.2
2023-07-10T02:04:03,42.805,6.029,-0.004,-0.005,-0.022,102.0,102.0,101.0,13.4,1505.2,332.9,-0.8,1.8,2471.601,13.28,0.006,218.7
2023-07-10T02:07:03,42.805,6.029,-0.01,-0.01,-0.022,102.0,102.0,101.0,13.4,1505.2,344.6,-0.8,1.8,2471.54,13.28,0.014,225.0
2023-07-10T02:10:03,42.805,6.029,0.003,-0.004,-0.029,102.0,102.0,101.0,13.4,1505.2,329.2,-0.8,1.8,2471.6,13.29,0.005,143.1
2023-07-10T02:13:03,42.805,6.029,-0.005,-0.011,-0.033,103.0,101.0,102.0,13.4,1505.2,342.5,-0.8,1.8,2471.588,13.29,0.012,204.4
2023-07-10T02:16:03,42.805,6.029,0.006,-0.009,-0.048,103.0,102.0,101.0,13.4,1505.2,353.1,-0.7,1.8,2471.544,13.29,0.01,146.3
2023-07-10T02:19:03,42.805,6.029,0.01,0.007,-0.002,106.0,103.0,100.0,13.4,1505.2,352.4,-0.8,1.8,2471.533,13.29,0.012,55.0
2023-07-10T02:22:03,42.805,6.029,-0.007,-0.02,-0.059,103.0,103.0,102.0,13.4,1505.2,326.9,-0.8,1.8,2471.517,13.29,0.021,199.3
2023-07-10T02:25:03,42.805,6.029,-0.008,0.011,-0.038,101.0,103.0,101.0,13.4,1505.2,339.1,-0.8,1.8,2471.523,13.29,0.013,324.0
2023-07-10T02:28:03,42.805,6.029,0.012,-0.009,-0.029,102.0,102.0,102.0,13.4,1505.2,339.6,-0.8,1.8,2471.501,13.29,0.015,126.9
2023-07-10T02:31:03,42.805,6.029,0.003,-0.013,-0.02,103.0,103.0,101.0,13.4,1505.2,335.0,-0.8,1.8,2471.531,13.29,0.013,167.0
2023-07-10T02:34:03,42.805,6.029,0.019,-0.039,-0.005,101.0,103.0,102.0,13.4,1505.2,344.2,-0.7,1.8,2471.535,13.29,0.043,154.0
2023-07-10T02:37:03,42.805,6.029,0.032,-0.015,-0.019,102.0,103.0,101.0,13.4,1505.2,327.3,-0.8,1.8,2471.541,13.29,0.035,115.1
2023-07-10T02:40:03,42.805,6.029,0.013,-0.022,-0.031,103.0,101.0,102.0,13.4,1505.2,338.9,-0.8,1.8,2471.525,13.29,0.025,149.4
2023-07-10T02:43:03,42.805,6.029,-0.015,0.006,-0.051,101.0,102.0,101.0,13.3,1505.2,350.5,-0.8,1.8,2471.527,13.29,0.016,291.8
2023-07-10T02:46:03,42.805,6.029,0.027,-0.014,-0.021,101.0,101.0,102.0,13.4,1505.2,322.9,-0.8,1.8,2471.478,13.29,0.03,117.4
2023-07-10T02:49:03,42.805,6.029,0.0,-0.018,-0.031,101.0,103.0,101.0,13.4,1505.2,340.8,-0.8,1.8,2471.511,13.29,0.018,180.0
2023-07-10T02:52:03,42.805,6.029,0.008,-0.01,-0.041,102.0,103.0,101.0,13.3,1505.2,342.6,-0.8,1.8,2471.519,13.29,0.012,141.3
2023-07-10T02:55:03,42.805,6.029,0.013,-0.021,-0.002,103.0,104.0,100.0,13.4,1505.2,346.9,-0.8,1.8,2471.513,13.29,0.024,148.2
2023-07-10T02:58:03,42.805,6.029,-0.006,-0.032,-0.038,103.0,101.0,100.0,13.4,1505.2,342.7,-0.8,1.8,2471.496,13.29,0.032,190.6
2023-07-10T03:04:03,42.805,6.029,0.004,-0.012,-0.028,102.0,102.0,102.0,13.3,1505.2,333.9,-0.8,1.8,2471.513,13.28,0.012,161.6
2023-07-10T03:07:03,42.805,6.029,0.009,-0.013,-0.029,102.0,103.0,102.0,13.4,1505.2,353.4,-0.7,1.8,2471.513,13.29,0.015,145.3
2023-07-10T03:10:03,42.805,6.029,0.003,-0.001,-0.015,100.0,103.0,102.0,13.4,1505.2,336.8,-0.8,1.9,2471.552,13.29,0.003,108.4
2023-07-10T03:13:03,42.805,6.029,0.015,-0.008,0.004,102.0,103.0,100.0,13.4,1505.2,326.9,-0.7,1.8,2471.556,13.29,0.017,118.1
2023-07-10T03:16:03,42.805,6.029,0.013,-0.028,-0.006,102.0,101.0,101.0,13.3,1505.2,344.2,-0.8,1.8,2471.53,13.29,0.03,155.1
2023-07-10T03:19:03,42.805,6.029,0.0,-0.017,0.001,104.0,101.0,102.0,13.3,1505.2,339.4,-0.8,1.8,2471.549,13.29,0.017,180.0
2023-07-10T03:22:03,42.805,6.029,0.025,-0.007,-0.016,103.0,102.0,101.0,13.3,1505.2,335.9,-0.8,1.8,2471.51,13.29,0.025,105.6
2023-07-10T03:25:03,42.805,6.029,0.011,-0.021,0.0,103.0,103.0,102.0,13.4,1505.2,328.5,-0.8,1.8,2471.494,13.29,0.023,152.4
2023-07-10T03:28:03,42.805,6.029,-0.008,-0.006,0.006,103.0,103.0,101.0,13.3,1505.2,329.8,-0.7,1.8,2471.49,13.29,0.01,233.1
2023-07-10T03:31:03,42.805,6.029,0.001,-0.001,-0.013,102.0,104.0,101.0,13.4,1505.2,340.4,-0.7,1.8,2471.488,13.29,0.001,135.0
2023-07-10T03:34:03,42.805,6.029,0.031,-0.006,-0.008,102.0,102.0,102.0,13.4,1505.2,326.0,-0.8,1.8,2471.476,13.29,0.031,101.0
2023-07-10T03:37:03,42.805,6.029,0.007,-0.011,-0.034,103.0,102.0,102.0,13.3,1505.2,335.0,-0.8,1.8,2471.476,13.29,0.013,147.5
2023-07-10T03:40:03,42.805,6.029,-0.005,-0.016,-0.037,102.0,103.0,102.0,13.3,1505.2,326.6,-0.8,1.8,2471.48,13.29,0.016,197.4
2023-07-10T03:43:03,42.805,6.029,-0.004,-0.012,-0.021,104.0,102.0,102.0,13.4,1505.2,343.6,-0.8,1.8,2471.468,13.29,0.012,198.4
2023-07-10T03:46:03,42.805,6.029,0.012,-0.024,-0.037,103.0,102.0,102.0,13.3,1505.2,325.8,-0.7,1.9,2471.467,13.29,0.026,153.4
2023-07-10T03:49:03,42.805,6.029,-0.014,-0.019,-0.056,104.0,102.0,101.0,13.4,1505.2,332.9,-0.8,1.8,2471.464,13.29,0.023,216.4
2023-07-10T03:52:03,42.805,6.029,-0.001,-0.008,-0.033,104.0,102.0,101.0,13.4,1505.2,339.4,-0.8,1.8,2471.503,13.29,0.008,187.1
2023-07-10T03:55:03,42.805,6.029,0.014,-0.025,-0.025,104.0,103.0,102.0,13.4,1505.2,340.9,-0.8,1.8,2471.486,13.29,0.028,150.7
2023-07-10T03:58:03,42.805,6.029,0.019,-0.026,-0.02,103.0,102.0,102.0,13.4,1505.2,321.4,-0.8,1.8,2471.46,13.29,0.032,143.8
2023-07-10T04:04:03,42.805,6.029,0.0,-0.004,-0.033,104.0,103.0,101.0,13.4,1505.2,336.1,-0.8,1.8,2471.5,13.28,0.004,180.0
2023-07-10T04:07:03,42.805,6.029,0.007,-0.006,-0.011,104.0,102.0,102.0,13.3,1505.2,329.6,-0.8,1.8,2471.52,13.29,0.009,130.6
2023-07-10T04:10:03,42.805,6.029,0.0,-0.018,-0.05,102.0,102.0,103.0,13.4,1505.2,333.9,-0.8,1.8,2471.489,13.29,0.018,180.0
2023-07-10T04:13:03,42.805,6.029,-0.015,-0.017,-0.014,103.0,104.0,102.0,13.4,1505.2,341.2,-0.8,1.8,2471.449,13.29,0.022,221.4
2023-07-10T04:16:03,42.805,6.029,0.0,0.001,0.004,104.0,102.0,102.0,13.4,1505.2,333.4,-0.8,1.8,2471.499,13.29,0.001,0.0
2023-07-10T04:19:03,42.805,6.029,-0.007,-0.024,-0.043,104.0,105.0,102.0,13.4,1505.2,339.1,-0.8,1.8,2471.491,13.29,0.025,196.3
2023-07-10T04:22:03,42.805,6.029,-0.014,0.008,-0.019,103.0,104.0,101.0,13.3,1505.2,331.0,-0.8,1.8,2471.499,13.29,0.016,299.7
2023-07-10T04:25:03,42.805,6.029,0.0,-0.006,-0.019,104.0,104.0,101.0,13.3,1505.2,348.6,-0.8,1.8,2471.472,13.29,0.006,180.0
2023-07-10T04:28:03,42.805,6.029,0.012,-0.017,-0.053,104.0,103.0,103.0,13.3,1505.2,339.3,-0.7,1.9,2471.445,13.29,0.02,144.8
2023-07-10T04:31:03,42.805,6.029,-0.016,-0.012,-0.038,103.0,104.0,102.0,13.3,1505.2,345.2,-0.8,1.8,2471.461,13.29,0.02,233.1
2023-07-10T04:34:03,42.805,6.029,0.013,-0.006,-0.019,105.0,102.0,101.0,13.3,1505.2,333.9,-0.8,1.8,2471.459,13.29,0.014,114.8
2023-07-10T04:37:03,42.805,6.029,0.012,-0.012,-0.034,104.0,105.0,102.0,13.4,1505.2,322.9,-0.8,1.8,2471.474,13.29,0.016,135.0
2023-07-10T04:40:03,42.805,6.029,-0.006,-0.025,-0.067,103.0,104.0,103.0,13.4,1505.2,325.8,-0.8,1.8,2471.455,13.29,0.025,193.5
2023-07-10T04:43:03,42.805,6.029,-0.011,0.0,-0.024,103.0,103.0,103.0,13.3,1505.2,329.8,-0.8,1.8,2471.483,13.29,0.011,270.0
2023-07-10T04:46:03,42.805,6.029,0.003,-0.018,-0.038,105.0,103.0,102.0,13.3,1505.2,322.0,-0.8,1.8,2471.425,13.29,0.018,170.5
2023-07-10T04:49:03,42.805,6.029,-0.007,-0.009,-0.038,104.0,104.0,102.0,13.4,1505.2,341.9,-0.8,1.8,2471.438,13.29,0.011,217.9
2023-07-10T04:52:03,42.805,6.029,-0.006,-0.015,-0.033,104.0,102.0,102.0,13.4,1505.2,343.2,-0.8,1.8,2471.463,13.29,0.016,201.8
2023-07-10T04:55:03,42.805,6.029,0.0,0.005,0.0,103.0,103.0,102.0,13.4,1505.2,332.1,-0.8,1.8,2471.428,13.29,0.005,0.0
2023-07-10T04:58:03,42.805,6.029,-0.005,-0.009,0.004,105.0,102.0,103.0,13.4,1505.2,324.4,-0.7,1.8,2471.424,13.29,0.01,209.1
2023-07-10T05:04:03,42.805,6.029,0.012,-0.009,-0.014,103.0,103.0,102.0,13.4,1505.2,344.0,-0.8,1.8,2471.464,13.29,0.015,126.9
2023-07-10T05:07:03,42.805,6.029,0.01,-0.018,-0.017,105.0,105.0,101.0,13.3,1505.2,345.2,-0.8,1.8,2471.479,13.29,0.02,150.9
2023-07-10T05:10:03,42.805,6.029,0.012,-0.007,-0.022,104.0,102.0,102.0,13.3,1505.2,333.8,-0.8,1.8,2471.43,13.29,0.013,120.3
2023-07-10T05:13:03,42.805,6.029,0.002,-0.024,-0.046,103.0,104.0,102.0,13.3,1505.2,352.3,-0.7,1.8,2471.456,13.29,0.024,175.2
2023-07-10T05:16:03,42.805,6.029,-0.002,0.003,-0.02,104.0,104.0,102.0,13.3,1505.2,344.9,-0.7,1.8,2471.463,13.29,0.003,326.3
2023-07-10T05:19:03,42.805,6.029,-0.021,0.002,-0.005,104.0,103.0,102.0,13.4,1505.2,340.8,-0.8,1.8,2471.446,13.29,0.021,275.4
2023-07-10T05:22:03,42.805,6.029,0.003,-0.017,-0.014,102.0,104.0,103.0,13.4,1505.2,350.7,-0.8,1.8,2471.451,13.29,0.017,170.0
2023-07-10T05:25:03,42.805,6.029,0.0,-0.006,-0.01,104.0,103.0,102.0,13.4,1505.2,327.4,-0.8,1.8,2471.425,13.29,0.006,180.0
2023-07-10T05:28:03,42.805,6.029,0.0,-0.008,-0.024,104.0,103.0,102.0,13.4,1505.2,323.7,-0.8,1.8,2471.437,13.29,0.008,180.0
2023-07-10T05:31:03,42.805,6.029,0.01,-0.002,-0.008,104.0,104.0,102.0,13.4,1505.2,333.4,-0.7,1.8,2471.441,13.29,0.01,101.3
2023-07-10T05:34:03,42.805,6.029,0.009,-0.019,-0.048,104.0,103.0,102.0,13.3,1505.2,338.0,-0.7,1.8,2471.425,13.29,0.021,154.7
2023-07-10T05:37:03,42.805,6.029,0.021,-0.014,-0.045,104.0,103.0,104.0,13.3,1505.2,344.6,-0.8,1.8,2471.394,13.29,0.025,123.7
2023-07-10T05:40:03,42.805,6.029,0.015,-0.021,0.001,104.0,105.0,102.0,13.3,1505.2,324.2,-0.8,1.8,2471.409,13.29,0.025,144.5
2023-07-10T05:43:03,42.805,6.029,-0.012,-0.009,0.005,104.0,103.0,102.0,13.4,1505.2,346.2,-0.8,1.8,2471.398,13.29,0.015,233.1
2023-07-10T05:46:03,42.805,6.029,0.018,-0.009,-0.025,103.0,104.0,102.0,13.4,1505.2,322.5,-0.8,1.8,2471.388,13.29,0.02,116.6
2023-07-10T05:49:03,42.805,6.029,-0.001,-0.021,-0.053,103.0,104.0,102.0,13.4,1505.2,322.4,-0.8,1.8,2471.411,13.29,0.021,182.7
2023-07-10T05:52:03,42.805,6.029,0.017,-0.004,-0.017,103.0,104.0,103.0,13.4,1505.2,331.0,-0.7,1.8,2471.412,13.29,0.017,103.2
2023-07-10T05:55:03,42.805,6.029,-0.001,-0.001,-0.012,104.0,105.0,103.0,13.4,1505.2,319.8,-0.7,1.8,2471.426,13.29,0.001,225.0
2023-07-10T05:58:03,42.805,6.029,0.0,-0.008,-0.048,104.0,104.0,102.0,13.4,1505.2,330.9,-0.8,1.9,2471.437,13.29,0.008,180.0
2023-07-10T06:04:03,42.805,6.029,0.009,-0.012,-0.021,103.0,102.0,102.0,13.4,1505.2,334.3,-0.8,1.8,2471.448,13.29,0.015,143.1
2023-07-10T06:07:03,42.805,6.029,0.01,-0.007,-0.016,105.0,103.0,103.0,13.3,1505.2,326.8,-0.8,1.8,2471.474,13.29,0.012,125.0
2023-07-10T06:10:03,42.805,6.029,-0.004,-0.005,0.006,106.0,102.0,102.0,13.4,1505.2,333.4,-0.8,1.8,2471.456,13.29,0.006,218.7
2023-07-10T06:13:03,42.805,6.029,0.016,-0.02,-0.01,104.0,104.0,104.0,13.4,1505.2,335.5,-0.8,1.8,2471.436,13.29,0.025,141.3
2023-07-10T06:16:03,42.805,6.029,0.011,-0.013,-0.016,105.0,104.0,102.0,13.3,1505.2,337.1,-0.8,1.8,2471.396,13.29,0.017,139.8
2023-07-10T06:19:03,42.805,6.029,0.002,0.003,-0.018,104.0,103.0,102.0,13.4,1505.2,328.6,-0.8,1.8,2471.405,13.29,0.003,33.7
2023-07-10T06:22:03,42.805,6.029,-0.013,-0.002,-0.038,103.0,104.0,101.0,13.4,1505.2,348.9,-0.8,1.8,2471.423,13.29,0.013,261.3
2023-07-10T06:25:03,42.805,6.029,0.013,-0.001,-0.032,105.0,103.0,102.0,13.4,1505.2,323.6,-0.8,1.8,2471.406,13.29,0.013,94.4
2023-07-10T06:28:03,42.805,6.029,0.032,-0.023,-0.01,103.0,104.0,102.0,13.3,1505.2,337.7,-0.7,1.8,2471.396,13.29,0.039,125.7
2023-07-10T06:31:03,42.805,6.029,0.004,-0.009,-0.027,104.0,103.0,102.0,13.3,1505.2,340.0,-0.7,1.8,2471.363,13.29,0.009,156.0
2023-07-10T06:34:03,42.805,6.029,-0.006,0.002,-0.03,103.0,103.0,102.0,13.3,1505.2,350.5,-0.8,1.8,2471.399,13.29,0.006,288.4
2023-07-10T06:37:03,42.805,6.029,0.002,-0.015,-0.049,103.0,103.0,102.0,13.3,1505.2,343.3,-0.7,1.8,2471.36,13.29,0.015,172.4
2023-07-10T06:40:03,42.805,6.029,0.005,-0.001,-0.02,104.0,103.0,101.0,13.4,1505.2,353.1,-0.8,1.8,2471.392,13.29,0.005,101.3
2023-07-10T06:43:03,42.805,6.029,-0.002,-0.009,-0.001,104.0,104.0,102.0,13.3,1505.2,326.0,-0.8,1.8,2471.376,13.29,0.009,192.5
2023-07-10T06:46:03,42.805,6.029,0.014,-0.004,-0.052,104.0,102.0,102.0,13.4,1505.2,320.5,-0.8,1.8,2471.412,13.29,0.014,105.9
2023-07-10T06:49:03,42.805,6.029,0.002,-0.02,-0.017,104.0,103.0,102.0,13.4,1505.2,342.3,-0.7,1.8,2471.372,13.29,0.02,174.3
2023-07-10T06:52:03,42.805,6.029,0.011,-0.003,-0.022,104.0,103.0,103.0,13.3,1505.2,329.5,-0.8,1.8,2471.374,13.29,0.011,105.3
2023-07-10T06:55:03,42.805,6.029,0.012,-0.004,0.001,104.0,103.0,103.0,13.4,1505.2,329.8,-0.8,1.8,2471.329,13.29,0.012,108.4
2023-07-10T06:58:03,42.805,6.029,0.004,-0.009,-0.008,103.0,104.0,102.0,13.3,1505.2,328.4,-0.8,1.8,2471.366,13.29,0.009,156.0
2023-07-10T07:04:03,42.805,6.029,0.036,-0.02,-0.014,103.0,103.0,103.0,13.3,1505.2,330.7,-0.8,1.8,2471.407,13.29,0.041,119.1
2023-07-10T07:07:03,42.805,6.029,0.01,-0.018,0.0,104.0,102.0,103.0,13.3,1505.2,348.6,-0.8,1.8,2471.41,13.29,0.02,150.9
2023-07-10T07:10:03,42.805,6.029,-0.002,-0.019,-0.03,104.0,103.0,102.0,13.3,1505.2,335.5,-0.8,1.8,2471.403,13.29,0.019,186.0
2023-07-10T07:13:03,42.805,6.029,0.023,-0.01,-0.02,103.0,103.0,102.0,13.3,1505.2,322.7,-0.8,1.8,2471.398,13.29,0.025,113.5
2023-07-10T07:16:03,42.805,6.029,-0.006,-0.019,-0.042,102.0,104.0,102.0,13.4,1505.2,343.4,-0.8,1.9,2471.384,13.29,0.019,197.5
2023-07-10T07:19:03,42.805,6.029,0.0,-0.003,-0.014,104.0,104.0,102.0,13.3,1505.2,340.8,-0.8,1.8,2471.372,13.29,0.003,180.0
2023-07-10T07:22:03,42.805,6.029,0.018,-0.012,-0.017,104.0,103.0,102.0,13.4,1505.2,331.5,-0.8,1.8,2471.375,13.29,0.021,123.7
2023-07-10T07:25:03,42.805,6.029,0.007,0.0,0.023,104.0,104.0,102.0,13.4,1505.2,345.4,-0.7,1.8,2471.356,13.29,0.007,90.0
2023-07-10T07:28:03,42.805,6.029,0.01,-0.022,-0.023,102.0,103.0,103.0,13.4,1505.2,353.1,-0.8,1.8,2471.365,13.29,0.024,155.6
2023-07-10T07:31:03,42.805,6.029,0.001,-0.016,-0.044,106.0,102.0,101.0,13.4,1505.2,325.1,-0.8,1.8,2471.368,13.29,0.016,176.4
2023-07-10T07:34:03,42.805,6.029,0.014,-0.01,-0.01,105.0,104.0,102.0,13.4,1505.2,349.7,-0.8,1.8,2471.37,13.29,0.017,125.5
2023-07-10T07:37:03,42.805,6.029,-0.005,-0.007,-0.011,105.0,103.0,102.0,13.4,1505.2,338.5,-0.8,1.8,2471.312,13.29,0.008,215.5
2023-07-10T07:40:03,42.805,6.029,0.037,-0.038,-0.036,103.0,105.0,102.0,13.3,1505.2,327.5,-0.7,1.8,2471.394,13.29,0.053,135.8
2023-07-10T07:43:03,42.805,6.029,0.021,-0.014,-0.004,104.0,103.0,103.0,13.3,1505.2,331.6,-0.8,1.8,2471.371,13.29,0.025,123.7
2023-07-10T07:46:03,42.805,6.029,0.004,-0.014,0.001,104.0,104.0,102.0,13.4,1505.2,349.1,-0.8,1.8,2471.346,13.29,0.014,164.1
2023-07-10T07:49:03,42.805,6.029,0.034,-0.015,-0.035,104.0,103.0,103.0,13.3,1505.2,322.9,-0.8,1.8,2471.366,13.29,0.037,113.8
2023-07-10T07:52:03,42.805,6.029,-0.005,-0.017,-0.021,103.0,104.0,102.0,13.3,1505.2,345.9,-0.7,1.8,2471.35,13.29,0.017,196.4
2023-07-10T07:55:03,42.805,6.029,0.044,-0.018,0.002,104.0,103.0,102.0,13.4,1505.2,343.4,-0.8,1.8,2471.374,13.29,0.047,112.2
2023-07-10T07:58:03,42.805,6.029,0.001,-0.017,-0.035,103.0,104.0,103.0,13.3,1505.2,345.6,-0.8,1.8,2471.404,13.29,0.017,176.6
2023-07-10T08:04:03,42.805,6.029,0.034,-0.031,-0.038,104.0,103.0,102.0,13.3,1505.2,331.2,-0.8,1.8,2471.453,13.28,0.046,132.4
2023-07-10T08:07:03,42.805,6.029,-0.014,-0.015,-0.025,105.0,103.0,102.0,13.4,1505.2,330.7,-0.7,1.8,2471.397,13.29,0.02,223.0
2023-07-10T08:10:03,42.805,6.029,0.013,-0.035,-0.021,104.0,104.0,103.0,13.4,1505.2,341.9,-0.8,1.8,2471.415,13.29,0.037,159.6
2023-07-10T08:13:03,42.805,6.029,0.017,0.0,-0.004,103.0,104.0,102.0,13.4,1505.2,345.6,-0.8,1.9,2471.411,13.29,0.017,90.0
2023-07-10T08:16:03,42.805,6.029,0.022,-0.006,-0.013,105.0,103.0,102.0,13.4,1505.2,346.7,-0.8,1.8,2471.426,13.29,0.022,105.3
2023-07-10T08:19:03,42.805,6.029,0.012,-0.007,0.018,103.0,103.0,102.0,13.4,1505.2,341.2,-0.8,1.8,2471.38,13.29,0.013,120.3
2023-07-10T08:22:03,42.805,6.029,0.004,-0.013,-0.035,105.0,103.0,102.0,13.3,1505.2,345.2,-0.7,1.8,2471.357,13.29,0.013,162.9
2023-07-10T08:25:03,42.805,6.029,0.017,-0.028,-0.018,104.0,103.0,103.0,13.3,1505.2,336.1,-0.7,1.8,2471.349,13.29,0.032,148.7
2023-07-10T08:28:03,42.805,6.029,-0.003,-0.018,-0.044,105.0,104.0,102.0,13.4,1505.2,333.4,-0.7,1.8,2471.36,13.29,0.018,189.5
2023-07-10T08:31:03,42.805,6.029,0.019,-0.017,-0.008,104.0,104.0,102.0,13.4,1505.2,330.3,-0.8,1.8,2471.357,13.29,0.025,131.8
2023-07-10T08:34:03,42.805,6.029,0.009,-0.026,-0.03,104.0,104.0,102.0,13.3,1505.2,331.9,-0.7,1.8,2471.372,13.29,0.027,160.9
2023-07-10T08:37:03,42.805,6.029,0.0,-0.033,-0.052,105.0,105.0,101.0,13.4,1505.2,343.0,-0.8,1.8,2471.375,13.29,0.033,180.0
2023-07-10T08:40:03,42.805,6.029,0.026,-0.016,-0.03,103.0,104.0,102.0,13.3,1505.2,337.8,-0.8,1.8,2471.385,13.29,0.03,121.6
2023-07-10T08:43:03,42.805,6.029,0.055,-0.021,0.023,104.0,103.0,102.0,13.3,1505.2,327.4,-0.8,1.8,2471.404,13.29,0.058,110.9
2023-07-10T08:46:03,42.805,6.029,0.012,-0.009,-0.01,103.0,103.0,102.0,13.3,1505.2,320.4,-0.8,1.8,2471.408,13.29,0.015,126.9
2023-07-10T08:49:03,42.805,6.029,0.001,-0.027,-0.051,103.0,103.0,101.0,13.3,1505.2,339.9,-0.7,1.8,2471.364,13.29,0.027,177.9
2023-07-10T08:52:03,42.805,6.029,0.02,-0.027,-0.018,103.0,101.0,103.0,13.4,1505.2,340.9,-0.8,1.8,2471.359,13.29,0.033,143.5
2023-07-10T08:55:03,42.805,6.029,0.016,0.01,-0.01,103.0,103.0,102.0,13.4,1505.2,337.0,-0.8,1.8,2471.402,13.29,0.018,58.0
2023-07-10T08:58:03,42.805,6.029,-0.003,-0.011,-0.04,103.0,103.0,102.0,13.3,1505.2,333.9,-0.7,1.8,2471.339,13.29,0.011,195.3
2023-07-10T09:04:03,42.805,6.029,0.013,-0.025,-0.014,104.0,103.0,103.0,13.4,1505.2,329.8,-0.8,1.8,2471.43,13.28,0.028,152.5
2023-07-10T09:07:03,42.805,6.029,0.013,-0.037,-0.004,104.0,102.0,102.0,13.3,1505.2,351.7,-0.8,1.8,2471.392,13.28,0.039,160.6
2023-07-10T09:10:03,42.805,6.029,0.002,0.003,-0.01,105.0,103.0,103.0,13.4,1505.2,323.1,-0.8,1.9,2471.42,13.29,0.003,33.7
2023-07-10T09:13:03,42.805,6.029,0.001,-0.023,0.004,104.0,103.0,103.0,13.4,1505.2,343.8,-0.8,1.8,2471.378,13.29,0.023,177.5
2023-07-10T09:16:03,42.805,6.029,0.014,-0.026,-0.019,104.0,103.0,102.0,13.3,1505.2,336.8,-0.7,1.8,2471.399,13.29,0.029,151.7
2023-07-10T09:19:03,42.805,6.029,0.015,-0.018,-0.017,104.0,103.0,102.0,13.4,1505.2,352.0,-0.8,1.8,2471.382,13.29,0.023,140.2
2023-07-10T09:22:03,42.805,6.029,0.013,0.009,-0.009,104.0,103.0,103.0,13.4,1505.2,327.8,-0.8,1.8,2471.387,13.29,0.015,55.3
2023-07-10T09:25:03,42.805,6.029,0.024,-0.02,-0.017,103.0,104.0,102.0,13.4,1505.2,330.7,-0.8,1.8,2471.4,13.29,0.031,129.8
2023-07-10T09:28:03,42.805,6.029,0.018,-0.017,0.021,103.0,103.0,103.0,13.4,1505.2,348.6,-0.8,1.8,2471.377,13.29,0.024,133.4
2023-07-10T09:31:03,42.805,6.029,0.032,-0.018,-0.044,104.0,103.0,102.0,13.4,1505.2,323.5,-0.8,1.8,2471.403,13.29,0.036,119.4
2023-07-10T09:34:03,42.805,6.029,-0.001,-0.014,-0.024,103.0,103.0,102.0,13.3,1505.2,353.1,-0.8,1.9,2471.373,13.29,0.014,184.1
2023-07-10T09:37:03,42.805,6.029,-0.005,-0.018,-0.039,104.0,103.0,102.0,13.4,1505.2,338.9,-0.7,1.8,2471.353,13.29,0.018,195.5
2023-07-10T09:40:03,42.805,6.029,-0.004,-0.034,-0.038,104.0,102.0,103.0,13.4,1505.2,339.4,-0.7,1.8,2471.375,13.29,0.034,186.7
2023-07-10T09:43:03,42.805,6.029,0.011,-0.028,-0.029,104.0,103.0,102.0,13.3,1505.2,337.8,-0.7,1.8,2471.374,13.29,0.03,158.6
2023-07-10T09:46:03,42.805,6.029,0.0,-0.021,-0.025,103.0,102.0,102.0,13.4,1505.2,334.2,-0.8,1.8,2471.38,13.29,0.021,180.0
2023-07-10T09:49:03,42.805,6.029,0.027,-0.024,-0.027,104.0,102.0,102.0,13.4,1505.2,336.8,-0.8,1.8,2471.411,13.29,0.036,131.6
2023-07-10T09:52:03,42.805,6.029,0.01,-0.021,-0.023,103.0,102.0,102.0,13.3,1505.2,326.0,-0.7,1.8,2471.38,13.29,0.023,154.5
2023-07-10T09:55:03,42.805,6.029,0.026,-0.019,-0.024,103.0,103.0,102.0,13.4,1505.2,339.3,-0.8,1.8,2471.395,13.29,0.032,126.2